| time (UTC) | temp F | wind direction | speed knots | gust knots | rain 1hr in | rain 24hr in | rain mn in | humidity % | barometer mb |
| 20260505035624 | 50 | 303 | 0.0 | 0.9 | 0.00 | 0.09 | 0.09 | 85 | 1019.6 |
| 20260505035120 | 50 | 284 | 0.0 | 1.7 | 0.00 | 0.09 | 0.09 | 84 | 1019.7 |
| 20260505034617 | 50 | 219 | 0.9 | 1.7 | 0.00 | 0.09 | 0.09 | 85 | 1019.7 |
| 20260505034114 | 50 | 185 | 1.7 | 3.5 | 0.00 | 0.09 | 0.09 | 85 | 1019.6 |
| 20260505033611 | 50 | 266 | 0.9 | 2.6 | 0.00 | 0.09 | 0.09 | 85 | 1019.7 |
| 20260505033109 | 50 | 191 | 2.6 | 3.5 | 0.00 | 0.09 | 0.09 | 85 | 1019.7 |
| 20260505032607 | 50 | 234 | 0.9 | 2.6 | 0.00 | 0.09 | 0.09 | 87 | 1019.8 |
| 20260505032103 | 50 | 204 | 1.7 | 1.7 | 0.00 | 0.09 | 0.09 | 88 | 1019.4 |
| 20260505031601 | 50 | 212 | 0.0 | 1.7 | 0.00 | 0.09 | 0.09 | 88 | 1019.4 |
| 20260505031056 | 50 | 246 | 0.9 | 0.9 | 0.00 | 0.09 | 0.09 | 88 | 1019.6 |
| 20260505030554 | 50 | 276 | 0.0 | 0.9 | 0.00 | 0.09 | 0.09 | 88 | 1019.5 |
| 20260505030049 | 50 | 281 | 0.0 | 1.7 | 0.00 | 0.09 | 0.09 | 87 | 1019.2 |
| 20260505025545 | 49 | 293 | 0.0 | 0.9 | 0.00 | 0.09 | 0.09 | 89 | 1019.4 |
| 20260505025045 | 50 | 294 | 0.0 | 0.0 | 0.00 | 0.09 | 0.09 | 89 | 1019.4 |
| 20260505024541 | 49 | 283 | 0.0 | 0.0 | 0.00 | 0.09 | 0.09 | 89 | 1018.9 |
| 20260505024038 | 49 | 279 | 0.0 | 0.0 | 0.00 | 0.09 | 0.09 | 90 | 1018.9 |
| 20260505023535 | 49 | 312 | 0.0 | 0.0 | 0.00 | 0.09 | 0.09 | 89 | 1018.9 |
| 20260505023033 | 49 | 268 | 0.0 | 0.0 | 0.00 | 0.09 | 0.09 | 89 | 1018.9 |
| 20260505022530 | 50 | 333 | 0.0 | 0.9 | 0.00 | 0.09 | 0.09 | 88 | 1018.7 |
| 20260505022027 | 50 | 304 | 0.0 | 0.0 | 0.00 | 0.09 | 0.09 | 86 | 1018.8 |
| 20260505021524 | 50 | 208 | 2.6 | 2.6 | 0.00 | 0.09 | 0.09 | 86 | 1018.7 |
| 20260505021020 | 50 | 226 | 1.7 | 2.6 | 0.00 | 0.09 | 0.09 | 87 | 1018.9 |
| 20260505020514 | 50 | 199 | 1.7 | 2.6 | 0.00 | 0.09 | 0.09 | 86 | 1018.8 |
| 20260505020012 | 50 | 212 | 0.9 | 2.6 | 0.00 | 0.09 | 0.09 | 87 | 1018.8 |
| 20260505015509 | 50 | 181 | 1.7 | 2.6 | 0.00 | 0.09 | 0.09 | 86 | 1019.0 |
| 20260505015006 | 50 | 304 | 0.0 | 0.0 | 0.00 | 0.09 | 0.09 | 86 | 1018.8 |
| 20260505014503 | 50 | 276 | 0.0 | 0.9 | 0.00 | 0.09 | 0.09 | 85 | 1018.8 |
| 20260505014000 | 50 | 297 | 0.0 | 0.9 | 0.00 | 0.09 | 0.09 | 86 | 1018.9 |
| 20260505013457 | 50 | 303 | 0.9 | 0.9 | 0.00 | 0.09 | 0.09 | 86 | 1019.0 |
| 20260505012954 | 50 | 329 | 0.9 | 0.9 | 0.00 | 0.09 | 0.09 | 85 | 1019.1 |
| 20260505012452 | 50 | 303 | 0.9 | 0.9 | 0.00 | 0.09 | 0.09 | 84 | 1018.8 |
| 20260505011949 | 50 | 181 | 0.9 | 1.7 | 0.00 | 0.09 | 0.09 | 84 | 1018.9 |
| 20260505011444 | 50 | 255 | 0.9 | 3.5 | 0.07 | 0.09 | 0.09 | 86 | 1018.9 |
| 20260505010942 | 50 | 264 | 1.7 | 2.6 | 0.00 | 0.08 | 0.08 | 87 | 1019.1 |
| 20260505010437 | 50 | 204 | 2.6 | 3.5 | 0.00 | 0.08 | 0.08 | 86 | 1018.9 |
| 20260505005934 | 50 | 273 | 1.7 | 2.6 | 0.05 | 0.08 | 0.08 | 86 | 1018.9 |
| 20260505005430 | 50 | 257 | 0.9 | 1.7 | 0.12 | 0.08 | 0.08 | 85 | 1018.9 |
| 20260505004928 | 51 | 289 | 2.6 | 3.5 | 0.12 | 0.07 | 0.07 | 84 | 1018.7 |
| 20260505004424 | 52 | 257 | 1.7 | 3.5 | 0.05 | 0.06 | 0.06 | 80 | 1018.8 |
| 20260505003922 | 52 | 283 | 2.6 | 5.2 | 0.07 | 0.05 | 0.05 | 78 | 1018.8 |
| 20260505003419 | 53 | 311 | 1.7 | 5.2 | 0.07 | 0.05 | 0.05 | 76 | 1018.9 |
| 20260505002915 | 54 | 316 | 3.5 | 7.0 | 0.00 | 0.04 | 0.04 | 70 | 1018.8 |
| 20260505002411 | 54 | 313 | 0.0 | 0.9 | 0.00 | 0.04 | 0.04 | 75 | 1018.8 |
| 20260505001910 | 54 | 301 | 0.0 | 0.9 | 0.00 | 0.04 | 0.04 | 76 | 1018.9 |
| 20260505001407 | 54 | 273 | 0.9 | 1.7 | 0.00 | 0.04 | 0.04 | 73 | 1018.5 |
| 20260505000904 | 53 | 304 | 0.9 | 1.7 | 0.00 | 0.04 | 0.04 | 80 | 1018.9 |
| 20260505000402 | 53 | 299 | 0.0 | 0.9 | 0.00 | 0.04 | 0.04 | 80 | 1018.7 |
| 20260504235858 | 53 | 283 | 0.9 | 0.9 | 0.00 | 0.04 | 0.04 | 76 | 1018.7 |
| 20260504235355 | 53 | 106 | 0.9 | 0.9 | 0.00 | 0.04 | 0.04 | 79 | 1018.4 |
| 20260504234851 | 53 | 239 | 0.9 | 0.9 | 0.07 | 0.04 | 0.04 | 76 | 1018.4 |
| 20260504234349 | 54 | 176 | 1.7 | 2.6 | 0.12 | 0.04 | 0.04 | 74 | 1018.3 |
| 20260504233846 | 53 | 54 | 1.7 | 2.6 | 0.05 | 0.03 | 0.03 | 67 | 1018.7 |
| 20260504233341 | 54 | 281 | 0.9 | 1.7 | 0.07 | 0.02 | 0.02 | 65 | 1018.4 |
| 20260504232838 | 56 | 195 | 2.6 | 6.1 | 0.05 | 0.01 | 0.01 | 60 | 1018.4 |
| 20260504232336 | 58 | 136 | 7.0 | 8.7 | 0.05 | 0.01 | 0.01 | 56 | 1018.8 |
| 20260504231832 | 61 | 286 | 1.7 | 5.2 | 0.00 | 0.00 | 0.00 | 46 | 1018.3 |
| 20260504231329 | 62 | 296 | 0.0 | 0.9 | 0.00 | 0.00 | 0.00 | 43 | 1018.1 |
| 20260504230825 | 62 | 290 | 1.7 | 6.1 | 0.00 | 0.00 | 0.00 | 40 | 1017.5 |
| 20260504230323 | 62 | 308 | 0.0 | 1.7 | 0.00 | 0.00 | 0.00 | 38 | 1017.6 |
| 20260504225822 | 63 | 262 | 1.7 | 5.2 | 0.00 | 0.00 | 0.00 | 37 | 1017.6 |
| 20260504225317 | 63 | 303 | 0.0 | 1.7 | 0.00 | 0.00 | 0.00 | 37 | 1017.1 |
| 20260504224815 | 63 | 306 | 0.9 | 5.2 | 0.00 | 0.00 | 0.00 | 36 | 1017.0 |
| 20260504224312 | 64 | 321 | 3.5 | 7.0 | 0.00 | 0.00 | 0.00 | 36 | 1016.8 |
| 20260504223808 | 64 | 288 | 3.5 | 8.7 | 0.00 | 0.00 | 0.00 | 36 | 1017.0 |
| 20260504223304 | 65 | 288 | 2.6 | 6.1 | 0.00 | 0.00 | 0.00 | 35 | 1016.9 |
| 20260504222801 | 66 | 346 | 4.3 | 7.8 | 0.00 | 0.00 | 0.00 | 33 | 1016.9 |
| 20260504222258 | 67 | 333 | 4.3 | 7.0 | 0.00 | 0.00 | 0.00 | 34 | 1016.9 |
| 20260504221755 | 67 | 264 | 1.7 | 8.7 | 0.00 | 0.00 | 0.00 | 35 | 1017.1 |
| 20260504221252 | 67 | 311 | 4.3 | 6.1 | 0.00 | 0.00 | 0.00 | 34 | 1016.8 |
| 20260504220749 | 66 | 318 | 5.2 | 6.1 | 0.00 | 0.00 | 0.00 | 35 | 1017.1 |
| 20260504220246 | 66 | 318 | 0.9 | 2.6 | 0.00 | 0.00 | 0.00 | 37 | 1017.0 |
| 20260504215743 | 64 | 12 | 2.6 | 2.6 | 0.00 | 0.00 | 0.00 | 38 | 1017.3 |
| 20260504215240 | 64 | 0 | 0.9 | 0.9 | 0.00 | 0.00 | 0.00 | 37 | 1017.6 |
| 20260504214736 | 63 | 296 | 2.6 | 3.5 | 0.00 | 0.00 | 0.00 | 38 | 1017.6 |
| 20260504214232 | 63 | 359 | 1.7 | 1.7 | 0.00 | 0.00 | 0.00 | 40 | 1017.6 |
| 20260504213729 | 62 | 294 | 1.7 | 2.6 | 0.00 | 0.00 | 0.00 | 40 | 1017.6 |
| 20260504213225 | 62 | 12 | 0.9 | 1.7 | 0.00 | 0.00 | 0.00 | 39 | 1017.5 |
| 20260504212723 | 62 | 352 | 0.0 | 2.6 | 0.00 | 0.00 | 0.00 | 39 | 1017.8 |
| 20260504212219 | 62 | 315 | 0.9 | 0.9 | 0.00 | 0.00 | 0.00 | 40 | 1017.7 |
| 20260504211717 | 62 | 273 | 1.7 | 3.5 | 0.00 | 0.00 | 0.00 | 40 | 1017.7 |
| 20260504211213 | 62 | 306 | 2.6 | 5.2 | 0.00 | 0.00 | 0.00 | 41 | 1017.7 |
| 20260504210710 | 62 | 285 | 3.5 | 8.7 | 0.00 | 0.00 | 0.00 | 41 | 1017.8 |
| 20260504210207 | 63 | 315 | 8.7 | 13.9 | 0.00 | 0.00 | 0.00 | 40 | 1017.6 |
| 20260504205704 | 64 | 278 | 7.8 | 11.3 | 0.00 | 0.00 | 0.00 | 37 | 1017.6 |
| 20260504205201 | 64 | 301 | 4.3 | 13.0 | 0.00 | 0.00 | 0.00 | 36 | 1017.5 |
| 20260504204700 | 64 | 325 | 5.2 | 7.0 | 0.00 | 0.00 | 0.00 | 35 | 1017.7 |
| 20260504204159 | 64 | 146 | 2.6 | 8.7 | 0.00 | 0.00 | 0.00 | 37 | 1017.6 |
| 20260504203657 | 64 | 356 | 3.5 | 7.0 | 0.00 | 0.00 | 0.00 | 35 | 1017.4 |
| 20260504203154 | 63 | 293 | 1.7 | 11.3 | 0.00 | 0.00 | 0.00 | 34 | 1017.1 |
| 20260504202649 | 63 | 287 | 4.3 | 5.2 | 0.00 | 0.00 | 0.00 | 36 | 1017.3 |
| 20260504202146 | 63 | 303 | 4.3 | 11.3 | 0.00 | 0.00 | 0.00 | 36 | 1017.4 |
| 20260504201643 | 63 | 291 | 5.2 | 8.7 | 0.00 | 0.00 | 0.00 | 37 | 1017.1 |
| 20260504201140 | 62 | 30 | 4.3 | 13.0 | 0.00 | 0.00 | 0.00 | 38 | 1017.7 |
| 20260504200637 | 62 | 302 | 3.5 | 9.6 | 0.00 | 0.00 | 0.00 | 37 | 1017.6 |
| 20260504200134 | 62 | 325 | 5.2 | 13.0 | 0.00 | 0.00 | 0.00 | 37 | 1017.7 |
| 20260504195630 | 63 | 312 | 7.8 | 20.9 | 0.00 | 0.00 | 0.00 | 38 | 1017.7 |
| 20260504195126 | 64 | 266 | 5.2 | 14.8 | 0.00 | 0.00 | 0.00 | 35 | 1017.4 |
| 20260504194623 | 65 | 306 | 4.3 | 13.0 | 0.00 | 0.00 | 0.00 | 32 | 1017.4 |
| 20260504194119 | 66 | 323 | 8.7 | 13.9 | 0.00 | 0.00 | 0.00 | 28 | 1017.3 |
| 20260504193615 | 67 | 314 | 4.3 | 9.6 | 0.00 | 0.00 | 0.00 | 27 | 1017.0 |
| 20260504193114 | 67 | 327 | 2.6 | 7.0 | 0.00 | 0.00 | 0.00 | 29 | 1017.0 |
| 20260504192612 | 67 | 281 | 2.6 | 9.6 | 0.00 | 0.00 | 0.00 | 29 | 1016.9 |
| 20260504192110 | 68 | 305 | 2.6 | 5.2 | 0.00 | 0.00 | 0.00 | 29 | 1016.9 |
| 20260504191608 | 68 | 301 | 0.9 | 7.0 | 0.00 | 0.00 | 0.00 | 28 | 1016.8 |
| 20260504191103 | 68 | 269 | 0.9 | 3.5 | 0.00 | 0.00 | 0.00 | 29 | 1016.7 |
| 20260504190600 | 68 | 222 | 2.6 | 7.8 | 0.00 | 0.00 | 0.00 | 27 | 1016.6 |
| 20260504190056 | 69 | 275 | 3.5 | 5.2 | 0.00 | 0.00 | 0.00 | 27 | 1016.7 |
| 20260504185553 | 69 | 234 | 3.5 | 6.1 | 0.00 | 0.00 | 0.00 | 27 | 1016.4 |
| 20260504185050 | 70 | 296 | 3.5 | 5.2 | 0.00 | 0.00 | 0.00 | 27 | 1016.4 |
| 20260504184545 | 70 | 247 | 2.6 | 6.1 | 0.00 | 0.00 | 0.00 | 27 | 1016.3 |
| 20260504184041 | 70 | 288 | 2.6 | 6.1 | 0.00 | 0.00 | 0.00 | 27 | 1016.7 |
| 20260504183538 | 71 | 239 | 6.1 | 7.8 | 0.00 | 0.00 | 0.00 | 26 | 1016.6 |
| 20260504183036 | 70 | 233 | 1.7 | 2.6 | 0.00 | 0.00 | 0.00 | 27 | 1016.7 |
| 20260504182532 | 70 | 289 | 1.7 | 3.5 | 0.00 | 0.00 | 0.00 | 26 | 1016.7 |
| 20260504182030 | 70 | 309 | 1.7 | 3.5 | 0.00 | 0.00 | 0.00 | 26 | 1016.7 |
| 20260504181527 | 71 | 251 | 4.3 | 7.0 | 0.00 | 0.00 | 0.00 | 25 | 1016.8 |
| 20260504181026 | 70 | 253 | 0.9 | 6.1 | 0.00 | 0.00 | 0.00 | 26 | 1016.6 |
| 20260504180524 | 70 | 261 | 1.7 | 2.6 | 0.00 | 0.00 | 0.00 | 25 | 1016.8 |
| 20260504180022 | 71 | 256 | 3.5 | 5.2 | 0.00 | 0.00 | 0.00 | 25 | 1016.7 |
| 20260504175519 | 70 | 266 | 1.7 | 3.5 | 0.00 | 0.00 | 0.00 | 26 | 1016.7 |
| 20260504175016 | 70 | 222 | 1.7 | 2.6 | 0.00 | 0.00 | 0.00 | 27 | 1016.8 |
| 20260504174514 | 70 | 220 | 0.9 | 5.2 | 0.00 | 0.00 | 0.00 | 27 | 1016.7 |
| 20260504174011 | 70 | 259 | 1.7 | 1.7 | 0.00 | 0.00 | 0.00 | 26 | 1016.8 |
| 20260504173507 | 70 | 229 | 3.5 | 5.2 | 0.00 | 0.00 | 0.00 | 26 | 1016.9 |
| 20260504173005 | 70 | 229 | 3.5 | 5.2 | 0.00 | 0.00 | 0.00 | 26 | 1017.1 |
| 20260504172501 | 70 | 190 | 1.7 | 3.5 | 0.00 | 0.00 | 0.00 | 27 | 1016.8 |
| 20260504171957 | 70 | 196 | 2.6 | 5.2 | 0.00 | 0.00 | 0.00 | 26 | 1017.1 |
| 20260504171454 | 71 | 242 | 1.7 | 2.6 | 0.00 | 0.00 | 0.00 | 26 | 1017.0 |
| 20260504170951 | 71 | 266 | 1.7 | 1.7 | 0.00 | 0.00 | 0.00 | 25 | 1017.0 |
| 20260504170447 | 71 | 198 | 1.7 | 2.6 | 0.00 | 0.00 | 0.00 | 25 | 1017.0 |
| 20260504160407 | 67 | 277 | 1.7 | 2.6 | 0.00 | 0.00 | 0.00 | 27 | 1017.1 |
| 20260504150831 | 61 | 208 | 0.9 | 2.6 | 0.00 | 0.00 | 0.00 | 36 | 1017.3 |
| 20260504150328 | 60 | 280 | 0.9 | 3.5 | 0.00 | 0.00 | 0.00 | 36 | 1017.6 |
| 20260504141258 | 54 | 333 | 0.0 | 0.0 | 0.00 | 0.00 | 0.00 | 49 | 1017.8 |
| 20260504140754 | 52 | 343 | 0.9 | 0.9 | 0.00 | 0.00 | 0.00 | 56 | 1018.0 |
| 20260504140250 | 51 | 342 | 0.0 | 0.0 | 0.00 | 0.00 | 0.00 | 57 | 1017.8 |
| 20260504130719 | 45 | 311 | 0.0 | 0.0 | 0.00 | 0.00 | 0.00 | 69 | 1018.1 |
| 20260504130214 | 45 | 338 | 0.0 | 0.9 | 0.00 | 0.00 | 0.00 | 70 | 1018.1 |
| 20260504120139 | 41 | 308 | 0.0 | 0.0 | 0.00 | 0.00 | 0.00 | 69 | 1017.7 |
| 20260504110606 | 42 | 285 | 0.0 | 0.0 | 0.00 | 0.00 | 0.00 | 73 | 1018.2 |
| 20260504100528 | 42 | 307 | 0.0 | 0.0 | 0.00 | 0.00 | 0.00 | 69 | 1018.4 |
| 20260504081921 | 46 | 286 | 0.0 | 0.0 | 0.00 | 0.00 | 0.00 | 51 | 1018.8 |
| 20260504081418 | 47 | 294 | 0.0 | 0.0 | 0.00 | 0.00 | 0.00 | 51 | 1018.9 |
| 20260504080914 | 47 | 289 | 0.0 | 0.0 | 0.00 | 0.00 | 0.00 | 49 | 1019.1 |
| 20260504080411 | 47 | 291 | 0.0 | 0.0 | 0.00 | 0.00 | 0.00 | 50 | 1019.2 |
| 20260504070338 | 51 | 304 | 0.0 | 0.9 | 0.00 | 0.00 | 0.00 | 46 | 1019.6 |
| 20260504050727 | 56 | 314 | 0.0 | 0.9 | 0.00 | 0.00 | 0.00 | 36 | 1020.1 |
| 20260504050224 | 57 | 310 | 0.9 | 0.9 | 0.00 | 0.00 | 0.00 | 36 | 1020.1 |
| 20260504045721 | 57 | 297 | 1.7 | 1.7 | 0.00 | 0.00 | 0.00 | 35 | 1020.1 |
| 20260504045215 | 58 | 311 | 0.9 | 1.7 | 0.00 | 0.00 | 0.00 | 34 | 1019.9 |
| 20260504044713 | 58 | 306 | 0.9 | 1.7 | 0.00 | 0.00 | 0.00 | 34 | 1019.9 |
| 20260504044210 | 58 | 316 | 0.9 | 1.7 | 0.00 | 0.00 | 0.00 | 34 | 1019.6 |
| 20260504043707 | 59 | 300 | 0.0 | 2.6 | 0.00 | 0.00 | 0.00 | 35 | 1019.8 |
| 20260504043204 | 59 | 305 | 0.9 | 2.6 | 0.00 | 0.00 | 0.00 | 35 | 1019.9 |
| 20260504042701 | 59 | 313 | 0.9 | 0.9 | 0.00 | 0.00 | 0.00 | 34 | 1019.8 |
| 20260504042158 | 60 | 327 | 1.7 | 2.6 | 0.00 | 0.00 | 0.00 | 34 | 1019.9 |
| 20260504041654 | 60 | 321 | 0.9 | 2.6 | 0.00 | 0.00 | 0.00 | 33 | 1019.8 |
| 20260504041150 | 60 | 309 | 0.9 | 1.7 | 0.00 | 0.00 | 0.00 | 32 | 1019.9 |
| 20260504040647 | 61 | 290 | 1.7 | 3.5 | 0.00 | 0.00 | 0.00 | 32 | 1019.9 |
| 20260504040144 | 62 | 330 | 1.7 | 3.5 | 0.00 | 0.00 | 0.00 | 31 | 1020.2 |